Wind_Speed
18 19 18 15 17 22 25 25 24 23 22 19 16 15 11 11 13 13 13 17 15 14 14 13 15 13 8 8 13 20 15 16 25 30 33 36 40 43 42 41 41 41 40 39 38 36 34 32 30 26 23 22 23 24 26 27 27 27 27 28 30 32 33 34 33 32 32 32 32 32 32 32 31 30 29 28 28 28 28 29 29 29 29 29 29 29 28
18 19 18 14 14 19 21 20 20 22 24 24 22 20 15 12 14 15 13 12 10 10 10 10 13 14 10 5 2 15 21 17 19 27 34 39 41 42 42 41 41 42 42 40 39 38 37 37 36 34 30 26 25 24 24 25 27 28 29 29 29 31 33 32 31 31 32 33 33 33 33 33 32 31 31 30 29 29 29 29 29 29 29 29 29 29 29
19 18 17 15 14 16 18 16 14 17 21 24 26 24 18 15 15 12 11 12 9 7 7 8 10 14 13 8 8 4 13 23 18 20 28 34 39 41 42 43 42 42 43 42 41 39 38 38 38 38 37 35 32 30 27 25 26 27 29 30 30 31 32 32 30 30 31 32 32 33 33 33 32 32 31 31 31 30 30 29 29 29 29 30 29 29 29
19 18 15 15 17 19 21 20 13 10 14 19 23 23 21 20 19 17 15 15 11 8 11 13 12 13 14 10 10 13 3 15 19 16 20 25 31 35 37 40 42 43 44 44 42 40 40 39 39 39 39 37 36 35 31 27 25 26 28 29 30 30 30 31 31 30 30 30 31 31 31 32 32 32 32 32 32 32 31 30 29 29 30 30 30 29 28
17 17 14 15 17 17 19 18 9 4 10 15 16 15 14 16 19 18 13 11 11 13 15 17 16 15 14 12 10 14 17 4 10 12 13 16 21 26 30 34 37 39 41 43 44 43 41 39 38 39 39 37 34 31 29 28 27 27 28 28 30 30 29 30 30 30 30 30 29 29 30 30 31 32 32 32 32 32 31 30 30 30 30 30 30 30 29
15 16 15 15 12 12 18 16 7 5 12 15 12 9 7 9 13 11 9 12 15 14 15 16 16 15 14 13 11 11 18 18 8 3 7 10 10 9 13 20 29 34 34 36 40 42 41 38 36 38 39 37 32 28 26 26 26 26 27 29 30 31 31 30 30 29 28 29 29 29 29 30 31 32 33 33 32 31 31 31 31 31 30 31 31 30 30
15 17 15 9 6 16 23 19 14 11 11 10 11 10 7 9 9 6 9 16 16 11 11 14 15 15 13 11 12 12 15 22 20 10 2 4 4 2 5 2 14 24 26 28 32 36 39 37 34 34 36 33 27 26 27 26 25 25 26 30 32 33 33 31 29 28 28 28 29 29 29 30 30 31 32 32 32 31 31 31 31 30 30 30 31 31 30
15 13 8 4 11 22 22 18 17 15 10 9 9 9 8 10 9 6 7 13 16 15 14 13 12 11 10 9 11 13 14 19 20 17 14 9 5 4 4 5 2 9 15 19 23 28 32 31 29 29 31 28 24 25 28 28 27 25 25 28 32 35 35 33 31 29 28 28 29 28 28 29 29 29 30 30 31 31 31 31 30 30 30 30 30 31 31
13 9 10 14 21 25 23 19 17 14 13 12 8 7 9 10 10 10 11 13 15 16 18 18 15 13 12 12 13 13 14 16 17 19 21 20 13 9 7 4 2 3 2 8 15 23 26 26 27 27 27 28 28 27 28 29 28 25 24 25 28 33 36 36 34 32 29 29 30 30 30 30 29 29 28 29 30 30 31 30 29 29 30 29 29 30 30
12 10 12 13 12 17 22 20 14 12 12 12 8 8 12 12 12 14 16 18 18 16 17 20 23 22 19 18 18 18 19 18 17 18 20 23 22 13 9 7 4 1 4 3 8 16 20 21 25 24 21 24 30 32 32 32 29 26 26 26 26 29 35 38 37 35 32 31 32 32 32 31 30 30 30 29 29 30 30 30 29 28 28 28 29 30 30
12 11 13 12 12 18 24 20 16 14 13 13 14 14 12 12 14 16 19 22 23 22 19 18 22 26 26 25 24 24 24 23 22 22 21 23 25 22 14 11 9 6 5 7 7 10 12 14 18 19 16 17 23 29 32 33 31 30 30 29 27 27 32 36 37 36 34 33 33 34 34 33 32 31 31 30 30 30 31 30 29 28 28 28 29 29 30
17 17 17 19 21 23 24 22 21 18 14 14 16 12 7 8 11 14 17 19 22 25 24 19 20 25 29 30 29 27 27 27 27 28 27 25 27 27 22 17 15 12 10 9 8 10 11 11 12 13 14 13 16 22 27 30 31 32 32 31 30 29 31 33 35 35 35 35 36 36 36 35 34 33 32 32 32 32 31 31 30 30 29 28 28 28 29
18 20 22 23 24 25 25 25 25 21 18 17 16 13 11 13 14 14 16 17 19 23 25 22 20 23 27 31 32 31 29 29 29 31 32 30 30 29 27 24 21 18 15 13 10 10 10 10 10 11 12 13 16 20 24 27 29 32 32 32 33 33 33 33 34 35 36 37 38 38 37 38 37 36 35 34 33 33 33 32 32 32 30 29 28 28 28
12 18 23 24 23 26 28 26 25 24 20 18 19 20 20 21 21 19 19 20 20 22 25 25 23 24 26 31 33 33 33 32 31 32 34 34 33 32 31 31 28 23 20 18 15 14 12 12 12 13 14 15 18 21 24 26 28 31 32 33 34 35 35 35 35 36 37 39 39 39 40 40 41 40 38 37 35 35 34 33 33 33 32 31 29 28 28
9 13 17 15 15 21 25 24 22 22 20 20 23 24 22 22 24 24 22 23 24 24 25 26 26 26 27 31 34 35 34 33 32 33 35 36 36 35 35 36 34 29 24 21 20 20 19 16 14 15 16 17 20 23 25 26 28 30 32 33 34 35 35 35 36 37 39 40 41 41 41 42 42 41 39 38 37 37 36 35 34 34 33 33 32 30 29
8 9 12 11 13 17 20 19 18 18 19 21 25 26 25 25 26 27 26 26 27 29 28 27 27 28 27 29 34 37 37 34 33 34 36 37 38 38 37 37 36 33 29 26 24 24 24 21 18 17 18 19 22 24 25 28 29 31 32 33 34 36 35 35 36 38 40 42 42 42 42 42 43 42 40 39 38 37 37 38 37 36 35 35 34 32 30
12 14 15 16 17 18 18 20 22 22 22 23 25 27 29 29 29 30 30 29 29 31 31 29 28 30 29 27 30 36 38 36 34 36 37 37 38 39 39 39 39 37 34 31 28 27 28 26 22 20 20 21 23 24 25 28 31 32 33 33 34 36 37 37 38 40 42 44 44 44 43 43 44 43 41 39 38 37 38 39 39 38 36 36 36 35 33
16 17 17 17 18 19 18 20 23 24 25 26 26 26 27 29 29 29 30 31 31 30 30 29 28 29 30 28 27 31 35 35 34 35 38 38 38 39 40 40 41 41 39 37 33 31 32 30 26 22 21 22 24 25 27 30 32 34 34 35 35 36 37 38 38 39 42 44 44 44 43 43 44 43 41 40 39 38 38 38 39 39 38 38 38 38 36
17 16 15 15 16 17 18 20 22 24 26 27 28 28 28 28 28 28 29 30 31 30 30 30 28 27 28 28 27 28 32 33 32 34 36 37 37 37 37 38 39 40 42 43 41 37 35 34 30 26 24 24 25 26 28 31 34 35 36 36 36 37 37 37 38 39 40 41 42 43 44 43 43 42 41 39 39 39 39 39 39 39 39 39 39 39 37
18 18 17 17 16 16 16 19 22 25 28 29 29 31 32 32 31 31 31 31 30 30 30 31 30 29 28 27 27 27 29 31 31 32 34 35 36 36 36 36 37 38 40 43 45 43 38 37 35 33 29 27 27 29 30 32 34 37 38 37 37 37 37 37 37 37 38 39 40 42 43 43 41 40 39 38 38 39 40 39 39 39 38 39 39 39 38
16 17 18 19 18 15 15 16 18 22 27 30 31 31 33 35 35 35 35 33 32 32 32 31 31 31 30 29 28 27 28 29 31 32 33 33 34 35 36 36 37 37 37 39 43 46 44 41 40 38 34 30 29 31 33 33 35 39 40 39 39 38 38 38 37 37 37 38 39 40 41 41 40 39 38 38 38 38 39 39 38 37 37 38 39 40 40
15 14 16 18 18 17 16 17 19 20 23 27 31 33 34 36 37 38 39 38 37 36 36 35 34 33 32 31 29 28 27 27 29 31 32 32 32 34 35 36 37 38 37 37 39 43 45 45 43 42 39 35 32 33 35 35 36 39 41 41 41 40 39 38 38 37 37 37 38 39 39 39 39 39 38 37 36 36 37 37 37 37 37 38 38 39 41
17 15 15 17 18 18 18 19 21 22 23 24 28 31 34 36 37 38 39 40 40 40 40 39 38 37 36 34 31 30 28 26 27 29 30 29 30 31 33 35 37 37 37 37 37 40 43 46 47 44 42 39 35 35 37 38 37 38 40 42 43 42 41 40 39 38 38 37 38 39 39 39 40 40 39 37 36 34 34 35 35 36 37 38 38 38 40
19 17 16 17 18 18 19 20 21 23 25 25 24 25 30 34 36 37 38 38 38 39 40 40 41 40 39 37 34 32 29 26 26 28 28 27 27 28 30 33 35 36 36 35 36 38 40 44 47 47 45 42 39 38 39 40 40 40 41 43 44 43 43 42 40 40 40 39 40 40 41 43 43 42 40 39 36 34 34 34 35 36 36 37 38 38 38
20 19 18 18 18 19 21 21 22 24 25 25 23 23 24 28 32 35 37 38 37 37 37 38 40 40 40 39 36 33 30 27 26 28 28 27 25 26 29 31 33 34 35 34 35 36 38 42 46 47 47 45 42 41 41 42 42 43 44 45 46 46 46 45 44 43 43 42 42 42 43 44 44 42 41 40 38 36 36 35 36 37 37 38 39 38 36
21 20 20 19 19 20 22 22 23 24 24 23 24 23 21 23 26 30 34 36 36 36 35 36 37 38 37 37 37 34 30 27 27 28 29 28 26 26 28 30 31 33 34 34 34 35 38 40 43 46 47 47 45 44 43 44 45 46 47 48 48 48 49 49 48 46 46 46 46 45 45 44 43 42 42 41 40 40 38 37 38 39 39 40 39 37 35
22 20 20 20 20 21 23 25 26 25 23 23 25 24 21 20 21 24 29 31 32 32 32 34 36 36 35 35 36 34 30 27 27 27 28 28 26 25 27 29 30 31 33 33 33 35 36 39 41 43 45 46 47 46 46 46 46 47 48 49 49 49 50 51 50 48 48 48 49 49 48 47 45 44 43 43 41 40 40 39 39 39 41 41 39 36 35
22 21 20 20 21 23 24 24 26 26 25 24 25 26 24 21 19 21 24 27 28 30 31 32 34 34 33 33 33 33 31 27 26 27 27 26 25 25 26 28 29 29 31 32 32 33 34 36 39 41 43 44 46 48 49 48 47 48 49 49 49 49 49 49 48 48 48 49 51 52 50 48 45 44 43 42 41 40 40 41 40 39 41 41 39 36 35
20 21 21 21 22 23 23 22 23 25 25 24 24 24 25 25 22 20 20 23 25 27 28 29 30 31 31 31 32 32 29 26 25 25 25 25 24 24 25 26 26 27 28 29 30 31 32 33 36 38 39 41 43 46 48 49 49 49 49 50 50 49 49 48 48 49 49 50 51 51 49 46 44 44 42 41 40 40 40 40 40 40 40 39 37 35 35
19 20 21 22 22 21 21 20 21 23 24 23 22 22 23 25 25 22 19 19 21 23 24 25 25 26 27 29 29 29 27 24 23 23 24 24 25 24 24 24 23 23 24 26 26 27 28 30 32 35 36 39 41 43 45 47 49 50 50 50 50 50 49 48 50 51 51 49 47 47 46 43 42 43 44 42 41 41 40 40 40 40 40 37 35 35 36
21 20 20 21 21 20 19 20 21 23 22 21 21 22 23 25 24 21 18 17 19 20 22 23 23 23 24 25 25 26 25 23 21 22 23 24 25 24 23 21 20 18 20 21 23 24 25 26 29 32 34 36 39 42 44 45 47 49 50 49 49 49 48 48 51 53 53 49 44 41 39 38 39 42 45 46 46 45 43 43 43 43 41 37 34 34 37
20 19 16 17 18 19 18 19 20 22 21 19 20 22 24 26 24 18 14 15 17 18 20 22 23 21 21 22 22 23 22 21 20 21 22 24 25 25 22 21 19 17 17 19 21 23 23 23 24 27 31 34 37 40 42 43 45 47 49 49 48 46 45 47 51 54 53 51 47 43 39 37 39 41 44 46 47 46 46 46 45 45 43 39 35 35 39
17 15 14 15 17 17 17 18 20 20 19 18 19 22 24 26 23 15 11 13 15 16 17 20 22 21 20 21 21 22 21 20 20 21 21 22 25 26 24 21 20 18 17 18 20 22 23 23 23 21 22 26 33 38 41 42 43 44 46 47 47 46 44 44 48 53 53 51 49 46 42 41 42 43 43 44 46 47 48 48 46 45 43 39 37 38 40
15 14 15 16 16 15 16 18 19 19 18 17 18 21 24 25 21 13 8 10 12 13 13 15 20 23 22 21 20 20 19 19 19 20 20 21 24 27 26 24 22 20 19 18 19 21 23 25 26 23 17 16 21 29 34 37 39 42 44 45 46 46 44 42 43 48 52 52 49 46 43 42 42 43 45 47 48 49 49 48 45 43 41 39 40 41 42
14 15 17 17 15 13 15 17 18 18 17 16 17 20 23 25 21 12 7 9 11 12 10 12 19 24 22 20 19 19 19 19 19 19 19 19 22 26 27 24 22 22 21 20 19 20 21 22 25 27 22 15 14 18 23 26 29 34 38 41 42 44 44 42 40 42 46 50 49 46 44 43 43 45 47 48 48 48 48 46 44 42 40 40 42 44 43
13 15 16 16 14 12 13 16 17 17 16 16 17 19 21 24 21 12 8 9 10 11 9 11 18 23 21 18 17 19 19 19 19 19 18 18 20 23 23 21 20 21 22 22 21 21 21 19 20 23 24 19 12 9 11 16 20 24 28 32 35 36 36 36 35 35 38 43 46 46 46 45 45 45 46 47 47 47 46 44 42 42 41 41 43 45 44
12 13 15 15 12 9 11 14 16 17 16 17 17 17 19 22 20 12 7 6 5 7 7 9 16 21 19 15 14 15 17 18 18 17 16 16 18 20 19 18 17 19 21 23 23 22 21 18 17 18 20 19 14 6 2 3 8 12 16 20 23 26 27 27 25 26 30 36 41 45 46 45 44 43 43 45 48 47 44 42 42 43 43 42 42 44 43
12 12 13 12 8 7 9 12 14 17 18 17 17 16 17 20 20 14 7 2 2 2 6 9 13 16 17 13 12 14 17 18 18 17 16 16 18 19 17 15 15 16 18 20 22 22 21 19 17 17 17 17 17 13 6 1 1 1 2 5 9 14 19 21 20 20 24 29 35 40 42 41 40 39 40 43 45 43 41 41 43 45 44 43 43 44 43
12 11 10 9 6 7 8 10 13 16 18 19 18 16 15 17 19 16 8 2 3 3 7 9 10 11 13 13 13 14 14 15 17 19 20 19 18 17 15 13 13 13 15 17 18 20 20 17 15 15 16 15 16 17 16 13 9 3 2 3 2 1 6 13 17 19 21 24 27 29 29 29 28 27 28 32 35 36 37 39 42 43 43 43 44 45 45
11 9 8 7 6 7 8 9 12 14 17 19 19 16 15 15 17 17 12 5 3 6 9 11 10 9 9 8 8 8 7 7 11 16 19 19 18 16 15 13 12 11 12 13 15 16 17 16 13 12 12 12 13 14 15 16 17 13 6 1 2 6 5 2 6 12 17 20 20 18 18 18 18 18 20 22 25 29 33 36 38 39 40 41 41 42 41
10 9 8 6 6 7 8 9 11 13 15 18 19 17 15 15 16 16 15 10 5 5 9 12 15 15 12 7 5 5 6 7 9 12 16 19 19 17 15 14 13 12 11 11 11 12 14 14 14 12 9 7 7 8 8 10 13 13 10 6 3 3 7 6 4 3 7 12 16 19 19 18 16 16 19 21 21 23 26 28 28 29 32 35 36 37 37
9 10 8 6 6 6 8 9 10 11 13 17 19 18 17 15 15 15 15 13 9 5 6 9 13 15 13 9 5 4 5 5 7 11 16 19 20 20 19 17 16 15 13 12 11 10 10 10 12 13 11 8 7 7 6 6 8 9 8 8 6 2 2 4 3 1 1 5 11 18 22 22 20 19 20 21 22 22 21 20 21 24 28 31 34 36 36
9 10 8 6 6 6 7 9 10 11 12 15 18 19 18 15 14 14 14 13 11 7 4 6 10 13 13 11 7 5 5 4 4 7 10 13 15 16 18 19 19 18 17 15 13 11 10 9 9 10 11 11 10 10 8 7 6 5 4 4 4 4 2 3 4 4 2 3 3 9 16 19 22 25 26 27 27 27 25 23 23 25 28 29 29 32 33
8 9 7 6 6 6 6 8 9 10 12 14 17 19 18 16 13 12 13 13 12 10 7 3 6 10 12 11 8 6 5 4 3 3 4 4 6 8 11 14 16 17 16 14 13 12 11 10 9 10 10 11 12 12 10 8 7 6 5 5 5 4 4 4 5 7 7 5 3 3 5 7 12 18 23 28 31 33 33 31 29 29 29 28 26 25 26
7 7 6 5 5 5 5 7 8 9 11 13 15 17 18 17 14 12 12 13 13 12 10 7 3 6 9 9 8 8 8 7 5 4 2 1 1 3 4 7 8 9 9 10 11 10 10 9 9 9 11 12 13 13 12 10 7 6 6 7 8 8 6 4 4 5 6 8 8 7 6 6 7 9 13 19 23 25 27 30 31 30 30 30 29 28 27
6 5 5 5 4 4 5 7 8 8 10 12 13 15 17 18 15 12 11 11 12 13 13 10 7 4 1 1 4 8 10 9 7 6 4 2 1 2 2 3 4 4 5 7 8 8 8 9 8 8 9 10 12 14 15 13 9 6 6 7 8 9 8 6 5 6 6 7 8 9 11 12 11 10 9 9 10 11 13 18 22 24 24 25 27 27 27
4 4 4 4 4 4 4 6 8 9 10 11 11 13 15 17 16 14 12 11 11 13 13 12 11 10 9 7 4 2 6 7 8 9 8 6 4 5 5 5 4 4 4 5 6 6 7 8 8 8 8 8 9 11 13 14 13 10 8 8 9 9 9 8 7 7 7 7 8 9 10 10 10 9 9 9 9 8 7 8 10 12 13 14 15 16 16
3 3 3 3 3 3 4 5 7 9 9 9 10 12 14 15 16 16 15 13 12 11 12 12 12 12 11 10 8 7 8 9 11 12 12 10 8 7 7 6 6 6 5 4 5 5 6 6 6 6 6 7 8 8 10 11 12 11 11 11 11 12 11 9 8 8 8 8 9 10 11 11 11 10 10 9 10 11 11 11 11 11 10 10 10 10 11
1 1 1 1 2 3 4 5 6 8 8 8 8 10 12 13 14 15 16 15 13 11 10 10 11 12 11 10 9 9 10 11 12 14 15 14 12 10 8 7 7 7 7 6 6 7 6 5 4 4 5 6 7 7 8 9 10 11 12 13 14 15 15 13 12 11 11 11 11 11 12 12 13 13 12 11 11 12 12 13 13 13 13 13 12 11 11
1 1 0 1 2 4 5 5 6 8 8 8 8 9 11 12 12 13 14 15 14 12 10 8 8 9 10 9 9 9 10 10 11 12 13 14 15 14 12 11 9 9 8 8 8 9 10 9 8 6 6 5 6 7 8 8 9 10 11 12 13 14 15 15 15 15 15 15 15 14 14 14 13 13 12 12 12 13 13 13 13 13 14 14 14 14 12
2 2 1 2 2 4 5 5 6 7 7 8 9 9 10 10 10 10 12 13 13 13 11 10 8 8 8 7 7 7 7 8 8 8 9 10 12 12 12 12 12 11 10 9 9 9 9 9 10 9 8 7 6 6 6 6 7 9 10 10 11 12 12 12 12 13 15 16 16 17 16 15 14 14 13 12 13 13 13 14 14 14 14 14 14 14 13
2 2 2 4 4 4 4 3 4 5 6 8 8 8 8 8 8 9 10 11 12 13 13 12 12 11 10 9 9 8 6 5 5 5 5 6 7 8 8 9 9 10 10 10 10 10 9 9 9 10 10 9 9 9 8 8 7 8 8 9 10 11 11 10 9 9 10 11 12 12 13 13 13 13 12 12 11 11 10 10 10 11 11 11 11 11 11
Wind_Direction
267 273 286 296 289 282 282 287 291 292 293 296 301 299 297 317 312 294 317 348 6 15 14 9 355 351 350 360 52 86 114 174 196 204 206 208 213 215 215 216 218 220 221 222 222 221 219 220 221 223 222 222 226 229 232 233 231 226 220 216 216 216 218 220 220 221 222 222 223 223 223 221 219 220 221 223 225 226 227 229 230 231 233 235 236 236 234
268 269 278 285 287 288 288 289 290 288 287 286 286 289 293 299 293 290 309 336 358 7 10 13 358 348 340 308 59 71 76 108 167 192 201 208 212 213 214 215 216 219 220 220 219 218 218 217 218 221 223 224 227 231 233 234 233 231 228 225 224 222 221 220 220 220 221 223 224 224 224 224 222 221 221 222 224 226 228 229 230 231 233 234 235 236 235
275 272 278 278 280 289 289 287 292 292 286 282 281 285 290 291 289 286 297 311 319 327 336 343 339 330 322 290 260 306 58 81 111 160 180 196 207 210 213 214 214 217 219 220 219 219 219 218 217 219 222 225 228 231 235 238 235 233 233 231 230 227 224 220 219 219 221 222 224 225 225 225 224 223 223 223 224 226 227 228 230 231 233 234 234 235 235
284 280 284 279 278 280 274 269 276 295 301 295 289 288 290 289 288 285 291 301 298 290 299 303 306 313 312 303 275 257 242 79 87 116 142 166 188 199 206 212 215 218 219 220 220 220 222 223 221 221 221 224 227 229 231 237 239 237 236 235 232 227 223 221 220 218 218 219 222 223 224 225 224 223 224 224 224 225 226 227 228 229 232 234 235 235 235
284 285 290 290 294 289 268 259 259 301 331 326 309 294 287 284 283 283 291 301 287 278 284 287 292 303 304 304 291 255 246 247 72 83 104 135 166 182 191 200 208 213 217 220 220 221 223 225 226 227 224 222 226 229 229 232 239 240 238 238 234 227 223 222 218 215 213 214 217 219 220 222 222 223 224 225 225 225 226 226 227 228 231 234 236 236 235
280 284 291 298 302 278 257 253 249 296 330 332 318 301 288 277 277 271 264 273 272 268 270 273 280 291 294 296 298 275 259 258 266 41 80 103 127 157 173 188 197 201 206 212 217 220 223 225 229 233 231 225 222 225 226 225 230 235 236 237 234 228 226 224 219 218 220 220 218 218 219 220 220 221 223 225 226 226 227 227 226 227 228 231 235 237 238
276 285 296 311 285 257 258 261 261 277 312 319 302 292 270 256 264 245 235 253 251 238 249 266 274 280 286 289 289 288 274 260 254 256 244 102 98 59 41 111 194 198 200 205 211 217 220 223 226 232 235 232 225 223 224 222 222 225 228 232 232 229 228 228 225 224 227 225 220 219 221 221 221 221 222 223 226 227 228 228 228 227 228 230 234 237 239
266 274 275 256 263 267 265 263 264 274 290 291 289 289 261 242 247 236 226 240 234 222 233 254 266 272 279 282 278 281 281 269 262 261 261 267 283 296 340 22 119 201 215 219 218 216 217 221 227 231 234 233 225 221 223 223 222 221 223 228 231 230 229 230 231 230 228 225 220 217 219 222 222 221 221 222 224 227 229 230 230 229 228 229 232 235 239
253 255 249 258 275 278 269 261 264 274 286 290 302 314 291 267 254 247 240 240 235 226 227 236 244 255 266 274 275 274 276 279 280 273 263 259 271 302 319 324 50 94 206 230 225 217 213 218 227 231 231 228 224 222 223 225 225 223 224 224 225 228 229 229 230 231 229 228 224 218 218 220 221 221 221 222 223 226 229 231 231 230 229 229 231 233 236
251 248 252 263 278 273 265 263 260 263 274 280 284 295 290 279 268 260 254 252 251 243 234 233 238 245 253 257 262 266 268 272 280 283 276 262 257 272 309 301 281 90 111 148 205 212 213 219 226 228 228 228 229 228 226 226 226 224 224 223 221 224 227 227 228 229 228 229 227 223 220 219 221 222 223 224 224 225 228 231 233 233 232 231 231 233 235
248 236 235 240 246 255 262 266 264 261 266 272 277 283 281 268 261 261 258 259 263 263 259 246 239 245 252 254 256 261 264 266 268 272 279 274 260 258 273 281 270 249 195 159 157 185 204 218 226 227 227 227 231 230 226 225 224 222 223 225 225 225 226 226 228 229 227 227 227 226 223 221 222 223 224 225 226 227 228 231 233 235 235 234 232 232 234
243 234 232 241 250 258 265 270 268 264 265 275 279 277 265 250 251 253 255 257 260 265 270 266 248 248 256 258 258 261 263 265 267 265 268 276 269 260 262 270 272 266 242 206 179 183 199 215 225 230 228 220 217 219 219 221 223 223 224 227 230 231 230 229 229 228 226 226 228 228 226 224 224 225 225 227 228 229 229 230 232 235 237 236 234 233 234
244 237 236 245 253 258 262 266 266 264 265 269 265 254 251 259 260 262 267 267 262 261 269 273 262 255 261 263 262 263 263 263 266 265 266 272 274 267 261 263 268 269 259 241 218 204 211 227 236 237 231 219 211 212 216 221 227 228 228 229 231 232 231 231 231 229 226 226 229 230 228 227 227 227 228 228 228 229 231 231 232 235 237 237 237 236 235
253 243 241 247 254 257 260 264 266 267 266 260 254 254 258 262 264 268 273 275 273 264 264 270 270 263 260 262 264 265 265 264 264 265 265 268 273 271 263 259 261 264 261 252 239 230 231 238 241 240 233 223 218 220 223 229 235 236 234 232 231 230 230 230 231 230 227 228 230 231 230 231 230 229 228 229 229 231 232 233 233 235 237 239 239 238 237
269 250 242 243 252 256 259 263 264 264 262 257 255 256 256 259 265 268 269 273 277 274 268 267 270 268 262 261 264 266 267 267 266 265 265 266 268 269 264 260 258 260 261 257 250 246 244 243 244 244 237 226 222 224 227 232 237 241 241 239 236 233 230 226 226 226 226 227 232 234 235 235 233 230 228 229 230 232 233 234 234 235 237 239 240 240 239
263 244 238 243 255 259 263 267 263 258 257 256 256 255 255 260 264 265 266 269 272 275 275 269 267 270 268 263 262 264 267 269 268 265 265 266 268 269 269 266 262 260 261 261 258 253 249 246 247 247 242 234 227 225 227 232 235 239 242 243 244 241 234 226 222 221 220 222 228 234 237 237 235 231 229 229 231 232 234 235 235 236 237 239 240 240 240
265 262 260 261 265 266 269 269 263 258 255 254 254 256 257 258 259 259 262 266 268 271 275 274 269 270 272 269 264 264 266 268 268 265 264 265 268 270 272 271 268 264 262 261 262 260 254 249 251 251 247 241 232 228 229 233 235 237 239 241 244 246 242 234 226 221 220 223 228 233 237 238 236 233 232 232 233 232 233 235 235 236 237 238 240 241 241
278 279 276 271 269 270 270 268 264 260 257 253 252 254 255 256 257 257 259 262 264 265 270 273 272 271 273 274 269 265 266 267 267 266 264 264 266 268 270 272 271 268 265 263 265 266 258 251 253 255 251 246 239 233 232 235 236 238 240 240 242 245 247 245 239 232 227 228 231 233 236 237 236 235 235 236 236 235 235 234 235 236 237 238 239 240 242
281 284 286 283 280 278 274 271 267 264 260 255 252 253 255 255 256 257 257 257 258 260 264 269 270 269 271 273 270 266 266 267 267 266 264 263 264 265 268 271 271 270 268 265 266 268 262 254 256 259 255 250 246 240 237 237 238 239 240 242 243 244 247 249 249 245 238 233 233 235 235 235 234 235 236 237 238 238 236 235 234 235 236 238 239 239 241
275 276 282 286 288 286 282 278 275 271 266 262 257 255 256 255 253 253 254 254 255 257 260 263 266 265 267 270 269 266 264 266 268 267 265 263 263 263 266 269 270 271 270 267 265 266 263 257 258 262 259 253 250 247 243 241 240 240 241 242 244 245 247 248 250 251 247 241 237 237 237 236 236 235 236 237 238 238 237 236 236 236 236 238 238 239 240
281 276 278 282 283 283 283 283 285 282 277 272 267 261 257 256 253 251 250 251 254 256 258 260 262 262 263 266 268 266 263 264 267 268 266 264 263 261 262 265 268 269 271 270 265 263 262 260 260 262 261 256 251 249 248 245 242 241 241 243 244 245 247 247 248 250 250 247 243 240 239 239 240 240 240 240 240 239 238 237 237 237 238 238 239 240 240
294 286 283 283 284 284 285 287 290 291 287 279 271 266 261 257 255 252 250 250 252 255 258 260 261 260 260 262 265 265 263 262 264 266 266 264 262 260 259 260 263 266 268 270 267 263 262 262 261 261 262 259 253 250 249 247 245 242 242 243 244 244 245 247 248 248 249 249 247 244 243 243 243 243 243 242 240 239 238 237 237 238 239 240 241 241 240
303 298 291 287 290 293 296 298 298 298 297 288 276 268 263 260 258 256 254 252 252 253 256 258 261 262 260 259 261 262 261 261 262 264 264 263 261 259 256 255 256 260 263 265 266 264 262 261 261 261 263 261 256 251 250 250 248 246 245 244 244 244 244 246 248 248 247 247 247 246 246 246 247 247 246 245 243 241 239 238 238 239 241 244 245 243 241
305 303 297 292 296 303 305 305 304 305 305 301 289 275 266 262 260 259 258 257 255 254 254 254 257 260 260 259 259 259 258 259 260 261 262 263 260 256 254 252 251 253 256 259 261 262 261 260 259 260 262 262 259 254 252 251 250 249 248 247 247 246 245 244 246 247 247 245 245 246 246 246 247 248 249 249 247 244 241 240 240 242 245 250 250 246 242
305 306 303 296 297 305 308 308 309 310 310 307 302 293 278 267 262 258 257 257 257 256 255 254 253 256 258 258 257 255 254 255 255 256 259 262 260 256 254 252 250 249 250 253 255 258 259 258 258 258 260 261 259 255 252 251 250 249 248 249 249 248 247 246 246 247 248 247 246 246 248 249 249 250 251 250 248 245 242 241 243 245 249 253 253 248 243
302 304 305 299 299 303 306 307 310 311 310 308 308 305 292 277 267 259 254 253 253 255 256 255 253 253 254 255 253 252 251 251 249 251 255 258 258 256 253 252 251 249 248 249 251 253 255 256 257 257 257 258 258 255 250 249 248 247 246 246 247 247 248 248 247 247 248 249 249 250 251 252 253 252 251 250 249 248 246 245 246 247 249 252 252 247 242
300 300 301 299 299 301 304 308 311 311 311 312 315 316 306 289 274 262 255 251 250 250 252 254 253 251 251 250 250 250 249 245 243 245 249 253 254 252 251 250 250 249 248 248 249 251 254 255 255 255 255 255 256 255 250 248 247 246 244 244 244 245 247 248 248 248 249 251 252 252 252 252 252 253 253 252 251 250 250 253 257 257 256 256 254 246 239
295 295 298 299 300 302 304 308 311 313 314 316 319 320 316 305 287 269 258 252 250 250 251 252 252 250 247 246 246 247 245 241 238 238 242 245 248 248 247 246 246 245 246 249 250 252 254 255 254 254 253 252 252 252 251 249 247 246 245 245 243 242 243 245 247 248 249 249 250 250 249 248 247 249 252 253 252 250 251 255 261 263 261 260 256 246 237
292 294 299 301 301 303 305 306 309 313 315 317 320 321 318 313 302 283 264 254 251 252 253 252 251 249 245 242 242 242 241 237 235 235 235 238 242 243 243 242 243 243 245 248 252 255 257 257 256 255 252 249 249 249 250 249 247 245 245 245 244 243 242 242 243 245 246 247 247 247 246 245 244 244 247 250 250 251 254 256 257 257 258 260 258 248 234
295 298 301 300 300 303 306 308 311 314 313 314 320 323 320 317 310 294 271 256 252 253 253 252 249 247 243 240 239 239 237 234 233 232 231 233 236 238 239 239 240 242 246 250 254 257 259 260 260 257 253 250 251 252 253 251 249 246 245 245 246 245 242 241 241 242 242 245 247 246 243 243 244 244 245 247 248 250 253 255 256 254 253 255 255 246 232
298 301 302 301 302 305 308 310 313 315 313 315 321 325 325 323 316 299 273 256 253 255 254 249 244 239 236 234 236 237 235 231 229 228 229 230 231 233 234 235 235 239 245 251 255 258 260 263 266 265 261 257 256 257 257 255 252 249 246 245 245 246 244 242 242 241 242 246 252 252 245 242 244 244 243 242 242 243 245 249 252 254 251 249 247 239 227
296 300 305 307 306 307 311 314 316 317 315 318 325 330 331 329 321 303 272 255 255 258 254 245 234 227 225 228 233 235 230 225 225 227 228 228 228 228 229 230 230 233 239 246 252 255 257 259 262 265 266 264 264 264 263 260 257 254 251 248 246 246 245 244 244 244 244 246 251 255 252 248 246 246 243 241 241 240 241 243 248 252 251 246 239 233 226
294 300 309 311 308 309 314 318 321 321 320 322 328 333 335 332 324 307 273 255 256 259 255 240 224 213 214 221 227 227 223 220 224 228 228 227 227 226 226 226 228 230 234 241 249 253 253 250 251 253 257 261 264 267 268 266 264 261 260 257 253 250 248 246 246 248 248 247 246 250 253 252 249 246 245 244 243 242 241 243 246 250 250 243 233 228 227
300 306 313 315 314 315 318 321 323 324 324 325 330 334 336 336 330 313 276 257 254 256 253 232 213 206 207 212 219 223 222 219 223 228 229 227 225 226 228 228 229 230 231 235 243 251 252 250 248 249 251 254 260 266 270 272 270 269 268 267 263 259 255 251 248 248 250 250 247 245 247 249 248 245 244 244 244 242 242 243 245 246 245 238 229 226 226
312 312 314 319 321 320 321 324 326 329 329 330 333 337 340 341 338 324 286 267 260 256 248 221 208 204 202 204 215 224 223 219 220 225 228 227 226 229 234 236 234 232 232 231 235 243 249 248 247 249 253 256 261 268 273 275 276 275 272 271 269 267 264 260 255 249 248 250 249 245 243 243 244 244 243 244 243 242 241 242 243 244 241 234 228 226 224
319 312 313 318 319 320 327 331 334 336 338 337 338 341 342 345 345 332 295 275 261 247 232 210 204 203 201 206 221 227 221 216 219 221 222 223 226 229 234 239 238 235 232 230 231 237 241 243 244 246 248 249 250 266 277 273 271 273 274 271 269 267 265 264 260 253 249 249 249 246 243 242 242 243 245 246 245 243 241 241 243 244 240 234 229 226 223
323 320 318 318 320 330 343 345 345 349 349 344 342 342 344 348 350 340 303 274 242 225 219 204 203 207 210 214 220 219 213 214 221 225 224 224 226 228 233 240 242 239 235 231 231 234 237 240 242 244 244 241 236 237 322 298 259 260 268 269 263 259 259 259 257 250 247 247 245 242 242 243 244 245 248 250 249 245 242 241 241 239 236 232 229 226 225
334 330 321 319 331 356 358 351 353 360 359 351 346 346 346 351 356 349 318 263 148 212 244 228 216 222 229 227 217 211 209 211 218 226 230 227 223 225 232 238 241 241 238 233 231 233 236 239 243 246 248 245 238 234 242 311 51 126 257 264 255 248 247 246 241 235 237 241 240 238 238 242 245 247 252 254 252 246 241 239 238 236 233 231 228 227 227
344 333 318 320 344 3 354 345 349 359 1 356 352 351 350 353 358 356 339 275 180 230 248 231 211 211 219 216 208 205 204 202 206 215 224 227 222 218 223 229 231 232 232 229 226 226 228 231 237 245 251 252 247 242 243 252 265 293 45 59 43 322 247 235 224 216 220 228 231 230 231 237 243 250 256 256 250 243 237 233 233 234 234 233 230 227 224
345 329 317 323 336 345 346 344 346 353 358 358 355 355 354 356 0 2 358 342 246 242 253 252 246 242 238 230 223 222 227 227 219 216 220 224 219 211 210 218 224 223 223 222 221 220 221 221 225 233 242 250 253 251 247 247 252 261 267 261 56 43 30 305 219 204 206 215 219 221 226 233 238 246 253 250 241 234 232 232 233 236 238 237 234 229 224
340 329 325 323 321 331 348 355 353 353 356 357 357 358 360 1 2 3 4 0 335 265 254 258 262 265 268 269 270 272 279 278 262 245 239 238 235 227 219 217 219 220 222 220 217 217 219 218 216 217 221 228 240 245 238 229 233 241 244 234 214 61 50 45 54 132 177 194 200 203 213 221 222 224 231 231 222 219 226 234 237 238 239 238 235 230 225
334 326 324 310 304 328 353 2 360 357 357 359 1 2 2 4 5 4 5 6 358 323 268 257 260 262 258 252 253 269 283 288 277 264 258 257 256 252 244 235 231 230 230 225 218 216 218 216 213 213 215 213 215 221 218 203 207 219 223 220 221 218 71 63 58 69 190 183 173 175 185 196 198 199 206 209 203 199 209 223 229 227 227 227 226 222 219
328 320 313 297 301 336 359 1 1 2 2 3 4 4 4 6 7 6 6 9 8 358 319 264 257 254 249 244 243 245 256 275 277 259 253 254 254 250 245 240 239 238 235 229 224 220 217 216 217 218 219 216 213 212 204 185 178 184 184 182 199 215 195 114 112 132 188 237 172 147 156 169 177 180 184 187 185 184 189 201 211 216 218 220 219 217 216
322 314 308 302 312 340 355 354 359 7 9 7 6 5 5 8 10 9 11 17 19 17 8 316 258 246 239 236 237 237 240 247 249 234 237 245 245 239 232 229 231 232 231 227 223 219 215 214 219 224 226 223 218 214 205 189 175 169 150 129 131 154 181 173 145 129 127 143 180 180 159 157 161 163 164 168 172 178 184 193 201 209 215 220 221 218 216
323 316 304 296 305 328 342 346 354 5 9 7 6 5 7 10 13 11 14 23 28 27 25 18 324 257 239 233 240 250 250 242 224 204 195 209 243 234 221 215 218 226 227 223 218 213 207 204 209 219 227 228 224 218 211 203 195 190 178 154 135 129 136 163 180 163 138 132 138 144 143 144 151 152 148 148 151 157 165 174 181 188 196 204 210 212 213
327 314 293 282 297 328 342 341 347 3 9 7 4 4 8 14 19 16 12 20 31 33 33 37 40 39 45 225 245 249 245 236 219 203 197 197 180 162 164 176 195 211 218 216 215 212 206 198 195 203 217 224 223 218 214 211 210 208 196 178 162 151 147 152 164 170 165 155 147 139 133 134 144 158 167 163 155 148 148 157 166 171 175 181 189 194 196
326 309 300 295 306 337 353 346 347 360 8 8 9 11 14 19 25 24 18 19 29 35 37 43 53 60 64 65 73 173 201 197 187 180 178 176 164 149 145 146 147 154 175 197 206 206 202 197 195 198 204 207 207 209 212 212 210 204 196 192 185 177 171 173 176 174 168 162 162 165 164 158 158 168 181 188 191 193 189 184 185 187 186 187 191 194 194
330 311 314 306 303 336 6 359 351 356 5 14 19 19 18 21 27 29 27 26 30 36 42 50 59 66 71 74 81 99 121 138 146 148 150 154 159 159 152 141 128 124 137 172 190 187 185 189 193 193 191 188 186 190 200 206 205 198 192 194 196 194 189 186 186 185 183 173 164 165 169 170 170 173 177 180 183 188 192 195 200 203 205 208 216 221 224
302 288 315 305 303 332 357 358 347 347 359 16 25 21 19 22 27 30 32 34 36 39 47 59 69 74 76 79 86 95 101 107 113 117 120 126 132 137 138 138 131 124 125 136 146 146 141 139 142 148 156 164 169 172 176 184 188 187 185 187 192 198 201 202 199 195 192 189 185 181 179 176 173 172 172 174 177 180 183 188 194 197 199 206 214 218 219
164 146 91 344 328 330 340 346 338 334 346 8 21 21 25 30 29 27 31 37 40 43 47 57 70 77 76 76 81 88 89 89 90 95 101 107 112 114 117 122 124 124 124 126 127 125 123 120 117 119 130 147 158 162 163 165 167 171 175 179 184 190 196 199 199 196 193 193 193 193 193 193 193 191 189 188 188 187 187 188 191 194 196 202 208 212 214
121 112 81 30 360 336 335 341 336 333 350 15 22 20 27 36 33 27 32 39 43 44 45 44 46 53 55 52 53 62 69 71 74 78 85 93 101 105 109 113 115 116 117 120 121 120 122 122 119 115 115 119 127 135 145 153 156 158 161 167 174 180 183 184 186 189 191 192 193 195 196 197 199 201 200 199 198 198 198 200 201 202 204 206 209 211 215
117 106 79 63 49 27 22 18 348 345 17 37 31 20 31 47 45 35 36 41 44 47 48 44 39 39 39 36 35 37 39 42 48 54 62 76 88 92 95 100 106 109 110 113 115 117 119 121 121 120 120 121 120 120 120 124 131 139 144 146 149 154 158 157 156 160 166 172 178 185 190 193 194 195 195 194 192 192 194 197 198 199 201 204 207 210 212
Height
3121 3121 3122 3123 3124 3123 3122 3123 3124 3124 3125 3126 3126 3125 3125 3126 3125 3123 3123 3125 3125 3124 3122 3121 3120 3119 3119 3119 3116 3113 3111 3112 3113 3114 3116 3118 3120 3122 3125 3127 3129 3131 3133 3136 3138 3140 3144 3147 3149 3151 3153 3155 3157 3158 3160 3162 3165 3167 3169 3171 3173 3174 3175 3177 3179 3181 3183 3185 3187 3189 3190 3192 3193 3195 3197 3200 3201 3203 3204 3205 3207 3209 3211 3213 3214 3215 3216
3118 3119 3119 3121 3121 3120 3120 3121 3123 3123 3122 3123 3123 3123 3123 3124 3123 3122 3123 3125 3124 3123 3122 3122 3120 3119 3119 3119 3118 3116 3113 3112 3112 3112 3113 3116 3118 3120 3123 3125 3126 3128 3130 3133 3135 3137 3139 3141 3144 3147 3150 3152 3155 3157 3159 3160 3163 3165 3167 3169 3171 3172 3173 3175 3177 3179 3181 3182 3183 3185 3187 3189 3191 3192 3194 3196 3198 3200 3201 3203 3205 3206 3208 3210 3211 3212 3214
3116 3117 3118 3118 3118 3117 3116 3117 3120 3121 3120 3120 3120 3120 3121 3121 3120 3120 3122 3123 3123 3122 3121 3121 3120 3119 3119 3118 3118 3118 3115 3113 3112 3113 3112 3113 3116 3119 3121 3123 3124 3125 3127 3130 3133 3135 3137 3138 3140 3143 3145 3148 3150 3153 3156 3159 3161 3163 3165 3167 3169 3170 3172 3174 3175 3176 3178 3179 3180 3182 3183 3186 3188 3190 3191 3193 3195 3197 3198 3200 3202 3203 3205 3206 3208 3209 3211
3114 3115 3116 3116 3115 3113 3112 3114 3118 3120 3119 3118 3117 3117 3118 3118 3117 3118 3119 3120 3121 3120 3118 3118 3119 3119 3119 3118 3118 3118 3117 3114 3113 3114 3114 3114 3115 3117 3120 3122 3123 3124 3125 3128 3130 3133 3135 3137 3139 3140 3142 3145 3147 3150 3153 3156 3158 3161 3163 3165 3166 3168 3170 3172 3173 3173 3174 3175 3176 3178 3180 3182 3184 3187 3188 3190 3191 3193 3195 3196 3198 3200 3201 3203 3205 3206 3208
3113 3114 3115 3114 3114 3112 3108 3110 3116 3118 3117 3116 3115 3114 3114 3114 3113 3114 3116 3117 3118 3117 3115 3115 3116 3117 3117 3117 3117 3117 3116 3114 3113 3113 3114 3114 3115 3116 3118 3120 3121 3122 3123 3125 3127 3130 3133 3136 3139 3139 3140 3141 3145 3148 3150 3152 3155 3157 3160 3162 3164 3166 3168 3169 3169 3170 3171 3172 3173 3175 3177 3179 3181 3183 3185 3186 3187 3189 3191 3193 3195 3196 3198 3200 3201 3203 3205
3113 3113 3113 3114 3114 3109 3104 3107 3113 3114 3115 3115 3113 3112 3112 3111 3111 3111 3113 3114 3115 3114 3113 3112 3113 3114 3115 3115 3115 3115 3113 3112 3112 3112 3112 3114 3114 3115 3116 3117 3118 3119 3121 3122 3125 3128 3131 3134 3136 3137 3139 3139 3141 3146 3149 3150 3151 3153 3156 3159 3162 3164 3165 3166 3167 3169 3170 3171 3172 3173 3175 3176 3178 3179 3181 3182 3184 3186 3188 3190 3191 3192 3194 3196 3198 3200 3201
3113 3113 3113 3114 3111 3105 3103 3107 3110 3110 3113 3114 3112 3111 3110 3110 3109 3110 3110 3111 3111 3112 3111 3110 3110 3111 3112 3112 3112 3112 3111 3110 3111 3111 3111 3113 3114 3115 3116 3116 3115 3117 3118 3120 3122 3125 3129 3132 3131 3132 3139 3141 3140 3143 3147 3148 3148 3150 3152 3155 3158 3160 3162 3163 3165 3167 3169 3170 3171 3172 3173 3175 3175 3176 3178 3179 3181 3183 3185 3186 3188 3189 3191 3193 3195 3197 3198
3112 3112 3114 3112 3107 3101 3102 3105 3106 3107 3109 3109 3109 3109 3108 3108 3108 3109 3109 3109 3108 3109 3110 3109 3108 3108 3109 3110 3110 3110 3109 3108 3108 3110 3110 3112 3114 3115 3116 3117 3116 3117 3118 3120 3121 3123 3128 3131 3129 3129 3136 3141 3140 3139 3142 3145 3147 3148 3149 3151 3154 3157 3159 3161 3163 3165 3167 3168 3168 3169 3171 3172 3174 3175 3175 3176 3178 3180 3182 3183 3185 3186 3188 3189 3191 3193 3195
3111 3112 3111 3109 3105 3100 3099 3102 3104 3105 3106 3106 3106 3106 3106 3106 3107 3107 3107 3106 3105 3106 3107 3107 3107 3106 3107 3108 3108 3108 3108 3107 3106 3108 3109 3111 3112 3114 3115 3116 3117 3119 3120 3120 3121 3122 3125 3128 3127 3127 3133 3137 3137 3138 3141 3143 3145 3146 3146 3148 3150 3153 3156 3158 3160 3162 3164 3165 3166 3167 3168 3169 3171 3172 3174 3175 3176 3177 3178 3180 3182 3183 3185 3186 3188 3190 3192
3109 3110 3110 3108 3106 3100 3096 3099 3103 3104 3104 3105 3105 3104 3104 3103 3103 3104 3104 3102 3101 3102 3102 3103 3104 3104 3105 3106 3107 3107 3107 3107 3106 3106 3107 3108 3110 3112 3113 3115 3117 3119 3120 3120 3120 3121 3124 3124 3124 3126 3130 3133 3134 3136 3139 3141 3142 3143 3143 3145 3147 3150 3152 3155 3157 3158 3160 3162 3163 3164 3165 3166 3168 3170 3171 3173 3174 3175 3175 3177 3179 3181 3182 3184 3185 3187 3188
3107 3108 3107 3106 3102 3097 3094 3097 3100 3101 3102 3103 3103 3103 3101 3099 3099 3100 3099 3098 3097 3097 3098 3099 3100 3100 3100 3102 3104 3105 3106 3107 3106 3106 3106 3107 3109 3110 3111 3113 3115 3117 3119 3120 3120 3122 3125 3125 3125 3126 3130 3131 3132 3133 3134 3137 3139 3140 3141 3143 3144 3146 3149 3152 3153 3155 3156 3158 3159 3161 3162 3164 3165 3167 3169 3170 3172 3173 3173 3174 3176 3178 3180 3181 3182 3184 3185
3104 3105 3104 3101 3098 3095 3094 3096 3098 3099 3100 3101 3101 3100 3098 3096 3096 3096 3095 3095 3095 3094 3095 3096 3098 3097 3095 3097 3099 3101 3103 3104 3104 3104 3104 3105 3106 3108 3109 3110 3112 3114 3116 3118 3119 3121 3123 3125 3126 3127 3128 3129 3130 3131 3132 3134 3136 3136 3138 3140 3142 3144 3146 3148 3149 3150 3152 3153 3154 3156 3159 3160 3162 3164 3166 3167 3169 3170 3171 3172 3173 3175 3177 3178 3179 3181 3182
3101 3102 3100 3097 3095 3093 3093 3094 3095 3096 3098 3098 3098 3096 3095 3095 3095 3094 3092 3092 3093 3092 3092 3093 3095 3095 3093 3093 3094 3096 3099 3100 3101 3101 3102 3102 3103 3105 3107 3108 3109 3110 3112 3114 3116 3118 3119 3121 3123 3124 3125 3126 3128 3129 3131 3132 3134 3134 3135 3136 3138 3140 3142 3144 3145 3146 3147 3148 3149 3152 3154 3156 3158 3160 3161 3163 3165 3167 3168 3169 3170 3172 3173 3175 3177 3178 3180
3098 3098 3097 3095 3093 3091 3091 3092 3093 3094 3095 3095 3093 3093 3094 3094 3093 3092 3091 3090 3090 3091 3090 3090 3092 3093 3093 3091 3090 3091 3093 3095 3097 3098 3098 3099 3100 3102 3104 3105 3105 3106 3108 3110 3112 3114 3116 3117 3119 3121 3123 3124 3126 3127 3128 3130 3131 3132 3132 3133 3134 3136 3138 3139 3140 3141 3143 3144 3145 3147 3150 3151 3153 3155 3157 3159 3161 3163 3165 3166 3167 3168 3170 3172 3174 3175 3177
3096 3095 3094 3093 3090 3089 3089 3090 3091 3092 3092 3091 3091 3091 3092 3092 3092 3091 3090 3089 3088 3088 3088 3089 3090 3090 3091 3091 3089 3088 3089 3091 3092 3094 3094 3095 3096 3098 3099 3101 3102 3103 3104 3106 3109 3111 3113 3114 3116 3118 3120 3122 3124 3125 3126 3128 3129 3129 3129 3130 3131 3132 3134 3135 3136 3137 3138 3140 3141 3143 3145 3146 3149 3151 3153 3155 3157 3159 3161 3162 3164 3165 3167 3169 3170 3172 3174
3094 3093 3091 3090 3089 3088 3089 3089 3089 3089 3089 3088 3088 3088 3089 3090 3090 3089 3088 3088 3087 3085 3085 3087 3088 3087 3088 3089 3088 3086 3086 3087 3089 3090 3091 3091 3092 3093 3095 3096 3098 3100 3101 3103 3105 3108 3111 3112 3113 3114 3116 3118 3120 3122 3123 3125 3125 3125 3125 3126 3127 3128 3129 3131 3133 3134 3135 3136 3137 3139 3140 3142 3144 3147 3149 3151 3153 3155 3157 3159 3160 3161 3163 3165 3166 3168 3170
3092 3090 3089 3088 3087 3087 3087 3086 3085 3086 3086 3085 3085 3085 3085 3086 3087 3086 3086 3086 3085 3083 3082 3084 3085 3085 3085 3086 3087 3086 3084 3085 3086 3087 3088 3089 3089 3090 3091 3093 3095 3097 3099 3100 3101 3104 3107 3109 3110 3111 3112 3114 3116 3118 3120 3120 3120 3121 3121 3122 3122 3123 3125 3127 3129 3131 3132 3132 3133 3135 3136 3137 3139 3142 3145 3147 3148 3150 3152 3154 3156 3157 3159 3161 3162 3164 3166
3089 3087 3086 3085 3085 3085 3085 3083 3082 3082 3082 3082 3082 3082 3082 3082 3082 3082 3082 3082 3082 3081 3080 3080 3081 3082 3081 3082 3084 3084 3083 3083 3083 3084 3085 3087 3087 3088 3088 3090 3092 3094 3097 3097 3097 3099 3102 3105 3106 3107 3109 3110 3112 3114 3115 3115 3115 3116 3117 3117 3118 3119 3120 3122 3124 3126 3128 3129 3130 3131 3132 3134 3136 3138 3140 3142 3144 3146 3148 3150 3152 3154 3155 3156 3158 3160 3162
3086 3085 3083 3083 3083 3082 3082 3081 3080 3079 3079 3079 3079 3078 3078 3078 3078 3078 3078 3078 3078 3077 3077 3077 3077 3078 3078 3078 3079 3080 3080 3079 3079 3080 3081 3083 3085 3085 3085 3086 3087 3090 3092 3094 3094 3094 3096 3099 3101 3103 3105 3106 3107 3109 3110 3110 3111 3112 3112 3113 3114 3115 3116 3117 3119 3120 3122 3124 3126 3127 3128 3130 3132 3134 3135 3137 3139 3140 3142 3145 3147 3149 3150 3152 3154 3156 3157
3084 3082 3082 3081 3081 3080 3079 3078 3076 3075 3074 3074 3075 3074 3073 3073 3073 3073 3073 3073 3073 3072 3072 3073 3073 3073 3074 3073 3074 3075 3075 3075 3075 3075 3076 3078 3080 3081 3081 3082 3083 3085 3087 3088 3089 3089 3091 3093 3095 3098 3100 3102 3103 3104 3105 3106 3106 3107 3108 3109 3110 3111 3112 3113 3114 3115 3117 3119 3121 3123 3124 3125 3127 3129 3131 3132 3134 3135 3138 3140 3142 3144 3146 3148 3149 3151 3153
3081 3080 3079 3078 3078 3078 3077 3075 3073 3072 3070 3069 3069 3069 3068 3067 3067 3068 3068 3068 3068 3068 3068 3068 3068 3068 3069 3069 3069 3070 3070 3071 3070 3070 3070 3072 3074 3076 3078 3079 3080 3081 3081 3083 3084 3084 3086 3088 3090 3093 3095 3097 3098 3099 3100 3101 3102 3102 3103 3105 3106 3107 3108 3109 3110 3111 3112 3114 3116 3118 3119 3121 3122 3124 3126 3128 3129 3131 3133 3135 3137 3140 3141 3142 3144 3147 3149
3079 3078 3077 3075 3074 3074 3073 3072 3070 3068 3066 3064 3063 3063 3062 3062 3061 3062 3062 3062 3063 3063 3063 3063 3063 3063 3063 3064 3065 3065 3066 3067 3067 3066 3066 3067 3069 3071 3073 3075 3076 3077 3077 3078 3078 3080 3081 3083 3085 3088 3090 3092 3094 3094 3094 3096 3097 3098 3099 3100 3102 3103 3104 3105 3106 3107 3108 3109 3111 3113 3115 3116 3118 3119 3121 3123 3125 3127 3128 3130 3132 3134 3135 3137 3139 3142 3143
3076 3075 3074 3072 3071 3070 3069 3068 3066 3064 3062 3060 3058 3057 3056 3056 3056 3056 3056 3056 3057 3058 3058 3058 3058 3058 3058 3059 3060 3060 3062 3063 3063 3062 3063 3064 3065 3067 3069 3071 3072 3073 3073 3073 3074 3075 3077 3079 3081 3083 3085 3087 3088 3089 3089 3090 3092 3093 3094 3095 3096 3099 3100 3101 3102 3103 3104 3105 3106 3108 3110 3112 3113 3114 3116 3119 3121 3122 3124 3126 3127 3129 3130 3131 3134 3136 3138
3073 3072 3070 3069 3068 3066 3065 3064 3062 3060 3057 3055 3053 3052 3051 3050 3051 3051 3051 3050 3051 3051 3052 3053 3054 3054 3054 3054 3055 3056 3057 3059 3059 3059 3059 3060 3062 3063 3064 3066 3067 3068 3068 3069 3069 3071 3073 3075 3076 3078 3079 3081 3082 3083 3084 3086 3087 3088 3089 3090 3091 3093 3095 3096 3097 3098 3099 3101 3102 3103 3104 3105 3107 3109 3112 3114 3116 3118 3119 3121 3122 3124 3125 3127 3128 3130 3133
3071 3069 3067 3066 3065 3063 3062 3060 3058 3056 3054 3051 3049 3048 3046 3045 3045 3045 3044 3044 3044 3045 3046 3047 3049 3049 3049 3050 3050 3051 3053 3055 3055 3055 3055 3056 3058 3059 3060 3060 3062 3063 3063 3064 3065 3067 3068 3069 3070 3072 3073 3075 3076 3078 3079 3080 3082 3083 3084 3084 3085 3087 3089 3091 3093 3094 3095 3096 3097 3098 3099 3100 3103 3106 3108 3110 3112 3114 3116 3117 3118 3119 3121 3122 3124 3126 3128
3068 3066 3064 3063 3062 3060 3058 3056 3055 3053 3051 3048 3045 3043 3042 3040 3039 3039 3038 3038 3038 3039 3040 3041 3042 3044 3045 3045 3046 3047 3049 3051 3051 3051 3051 3052 3053 3054 3054 3055 3056 3057 3059 3060 3062 3063 3063 3064 3065 3066 3068 3069 3071 3072 3074 3075 3076 3077 3078 3079 3080 3082 3083 3085 3087 3089 3091 3092 3093 3094 3095 3097 3100 3102 3104 3107 3109 3110 3111 3113 3114 3115 3116 3118 3119 3121 3123
3066 3064 3062 3060 3059 3057 3055 3053 3051 3049 3048 3045 3042 3039 3037 3035 3034 3033 3033 3032 3033 3034 3034 3035 3036 3038 3040 3041 3042 3043 3045 3047 3047 3047 3047 3048 3048 3049 3050 3051 3052 3053 3054 3056 3058 3059 3059 3059 3060 3061 3062 3064 3065 3066 3068 3069 3070 3071 3072 3073 3074 3076 3077 3079 3081 3084 3086 3087 3088 3089 3090 3092 3095 3098 3101 3103 3105 3106 3107 3108 3110 3112 3114 3114 3115 3117 3119
3063 3061 3059 3058 3056 3054 3052 3050 3048 3046 3044 3041 3038 3035 3032 3030 3029 3029 3028 3028 3028 3029 3029 3030 3031 3032 3035 3037 3038 3040 3041 3043 3043 3043 3044 3044 3045 3046 3047 3048 3049 3050 3051 3052 3053 3054 3055 3056 3056 3057 3058 3058 3059 3060 3062 3063 3064 3065 3066 3067 3069 3070 3071 3073 3076 3078 3080 3080 3080 3081 3084 3087 3091 3095 3098 3100 3101 3102 3104 3105 3107 3109 3110 3111 3112 3113 3114
3060 3059 3057 3055 3054 3052 3050 3048 3046 3043 3040 3038 3035 3032 3029 3026 3025 3024 3023 3024 3024 3024 3025 3026 3027 3028 3030 3032 3034 3036 3037 3039 3039 3040 3040 3041 3042 3043 3044 3045 3045 3046 3047 3048 3049 3050 3051 3052 3052 3052 3053 3053 3054 3055 3056 3057 3058 3059 3060 3061 3062 3064 3066 3068 3070 3071 3072 3073 3073 3074 3078 3083 3088 3091 3093 3095 3097 3098 3100 3102 3103 3104 3105 3107 3108 3110 3111
3057 3056 3054 3053 3051 3049 3047 3045 3043 3040 3038 3035 3033 3030 3027 3024 3021 3019 3019 3019 3019 3020 3021 3022 3023 3024 3026 3028 3030 3032 3034 3035 3036 3036 3037 3038 3039 3040 3041 3042 3042 3043 3044 3044 3046 3047 3047 3048 3048 3048 3048 3049 3050 3050 3050 3051 3052 3053 3054 3055 3056 3058 3060 3063 3064 3065 3066 3067 3069 3071 3073 3078 3084 3087 3089 3091 3093 3095 3097 3098 3099 3100 3101 3102 3104 3106 3108
3055 3054 3052 3050 3048 3046 3044 3043 3040 3038 3035 3033 3030 3027 3025 3021 3018 3016 3015 3015 3015 3016 3017 3018 3020 3021 3023 3025 3027 3029 3030 3031 3032 3033 3033 3034 3036 3038 3039 3039 3040 3040 3041 3041 3043 3044 3045 3045 3045 3045 3045 3046 3046 3045 3045 3045 3045 3046 3047 3049 3050 3052 3055 3057 3058 3059 3061 3064 3067 3069 3070 3073 3077 3081 3083 3085 3087 3089 3091 3093 3094 3094 3095 3097 3100 3103 3104
3053 3051 3050 3048 3046 3044 3042 3041 3038 3036 3033 3031 3028 3025 3022 3018 3015 3013 3012 3012 3012 3013 3013 3014 3016 3018 3020 3022 3024 3026 3027 3028 3029 3029 3030 3031 3033 3035 3036 3037 3037 3038 3038 3039 3040 3041 3043 3044 3044 3043 3043 3043 3043 3042 3040 3039 3039 3040 3041 3042 3044 3046 3049 3052 3052 3054 3058 3062 3064 3066 3067 3070 3072 3075 3076 3078 3080 3082 3084 3086 3088 3089 3090 3093 3095 3097 3100
3050 3049 3047 3046 3044 3042 3040 3038 3036 3034 3031 3029 3026 3023 3020 3016 3013 3010 3009 3009 3010 3010 3011 3011 3013 3015 3017 3019 3021 3022 3024 3025 3025 3026 3027 3028 3030 3032 3033 3034 3035 3035 3036 3037 3037 3038 3040 3041 3042 3042 3041 3041 3040 3038 3035 3034 3034 3034 3035 3036 3038 3040 3044 3047 3048 3049 3052 3056 3059 3061 3064 3066 3068 3069 3070 3072 3074 3076 3078 3079 3081 3083 3085 3087 3089 3091 3094
3047 3046 3045 3043 3042 3040 3039 3037 3035 3032 3030 3027 3024 3021 3018 3015 3011 3009 3007 3007 3008 3008 3009 3009 3011 3013 3014 3016 3018 3020 3021 3022 3022 3023 3024 3025 3027 3028 3030 3031 3032 3033 3033 3034 3035 3036 3037 3038 3039 3040 3039 3038 3037 3035 3032 3030 3030 3030 3030 3031 3032 3034 3037 3041 3044 3044 3045 3047 3052 3055 3058 3059 3060 3062 3063 3065 3067 3068 3071 3073 3075 3077 3079 3081 3083 3084 3087
3045 3044 3042 3041 3040 3038 3037 3035 3033 3030 3028 3026 3023 3020 3017 3013 3010 3008 3007 3006 3006 3007 3007 3007 3009 3010 3012 3014 3016 3017 3018 3019 3019 3020 3021 3022 3024 3025 3027 3028 3029 3030 3031 3032 3032 3033 3034 3035 3036 3037 3037 3036 3035 3033 3031 3029 3027 3027 3027 3026 3026 3027 3029 3033 3037 3039 3039 3040 3043 3047 3050 3052 3054 3055 3055 3057 3060 3062 3065 3068 3070 3073 3074 3076 3077 3079 3081
3043 3042 3040 3039 3038 3037 3036 3034 3031 3029 3027 3024 3021 3019 3016 3012 3009 3007 3006 3006 3005 3005 3005 3006 3007 3008 3010 3011 3013 3013 3014 3016 3016 3017 3018 3019 3021 3022 3023 3024 3025 3026 3028 3029 3030 3030 3031 3032 3033 3033 3034 3034 3034 3033 3031 3028 3026 3025 3024 3023 3023 3022 3023 3025 3029 3032 3034 3034 3035 3038 3041 3044 3047 3048 3049 3050 3053 3056 3060 3064 3067 3069 3070 3070 3072 3074 3077
3041 3040 3039 3037 3036 3036 3035 3033 3030 3028 3026 3023 3021 3018 3015 3012 3009 3007 3006 3005 3005 3004 3004 3005 3006 3006 3007 3008 3010 3010 3011 3013 3014 3015 3016 3017 3019 3020 3021 3022 3022 3024 3025 3026 3027 3028 3029 3029 3030 3030 3031 3032 3032 3031 3030 3027 3025 3024 3022 3021 3020 3020 3020 3020 3023 3026 3029 3029 3029 3031 3034 3037 3040 3043 3045 3045 3046 3051 3057 3061 3062 3061 3062 3064 3067 3070 3072
3040 3039 3037 3036 3035 3035 3034 3032 3030 3028 3025 3023 3020 3018 3015 3012 3009 3007 3006 3005 3005 3004 3004 3004 3005 3005 3005 3006 3007 3008 3009 3010 3012 3013 3014 3015 3016 3017 3018 3019 3020 3021 3022 3023 3024 3025 3026 3027 3027 3027 3027 3028 3029 3029 3028 3027 3025 3023 3021 3020 3019 3018 3018 3018 3019 3021 3023 3024 3024 3026 3029 3032 3035 3038 3039 3040 3042 3047 3053 3055 3054 3053 3055 3059 3062 3065 3067
3039 3037 3036 3035 3034 3034 3033 3031 3029 3027 3025 3023 3020 3018 3015 3013 3010 3007 3006 3005 3005 3004 3004 3004 3004 3004 3004 3005 3006 3006 3006 3007 3009 3010 3012 3013 3014 3015 3016 3017 3018 3019 3019 3020 3021 3022 3023 3024 3025 3025 3025 3025 3026 3026 3026 3026 3025 3023 3021 3020 3019 3018 3017 3017 3017 3017 3018 3020 3021 3022 3025 3027 3029 3030 3032 3034 3038 3043 3046 3047 3047 3048 3051 3054 3056 3058 3061
3038 3036 3035 3034 3033 3033 3032 3031 3029 3027 3025 3023 3020 3018 3015 3013 3010 3008 3006 3005 3005 3004 3004 3003 3004 3004 3004 3004 3005 3004 3004 3004 3006 3008 3010 3011 3011 3012 3014 3015 3016 3016 3017 3017 3018 3019 3020 3021 3022 3023 3023 3023 3023 3023 3024 3024 3024 3024 3023 3022 3021 3020 3019 3018 3016 3015 3015 3016 3017 3019 3021 3022 3023 3025 3027 3030 3035 3039 3041 3043 3044 3046 3048 3051 3053 3055 3058
3037 3036 3034 3033 3033 3032 3031 3030 3029 3027 3025 3023 3020 3018 3015 3013 3011 3009 3007 3005 3004 3004 3003 3003 3003 3003 3004 3005 3004 3004 3003 3004 3004 3006 3007 3008 3009 3010 3012 3013 3014 3015 3015 3015 3016 3017 3017 3018 3020 3021 3021 3021 3021 3021 3022 3022 3023 3023 3023 3022 3022 3022 3021 3018 3016 3015 3015 3015 3014 3015 3017 3019 3020 3023 3025 3028 3031 3035 3037 3040 3043 3045 3047 3050 3053 3055 3057
3036 3035 3034 3033 3032 3032 3031 3030 3029 3027 3025 3023 3021 3018 3016 3014 3012 3010 3008 3006 3005 3004 3003 3003 3002 3002 3003 3004 3004 3004 3004 3004 3004 3004 3005 3005 3006 3007 3009 3011 3012 3013 3013 3013 3013 3014 3015 3016 3017 3018 3020 3020 3020 3020 3021 3021 3021 3022 3022 3022 3021 3022 3021 3019 3017 3017 3017 3017 3015 3014 3015 3017 3019 3021 3023 3026 3028 3030 3033 3037 3041 3044 3046 3048 3050 3053 3055
3035 3034 3033 3032 3032 3031 3031 3030 3029 3027 3026 3023 3021 3019 3016 3014 3013 3011 3009 3007 3005 3004 3003 3002 3001 3001 3002 3003 3004 3004 3004 3004 3003 3003 3004 3004 3004 3005 3006 3008 3009 3010 3011 3011 3011 3011 3012 3013 3015 3016 3017 3018 3019 3019 3020 3020 3020 3020 3021 3021 3021 3022 3021 3020 3019 3018 3019 3019 3018 3016 3016 3017 3018 3019 3020 3022 3024 3026 3029 3033 3038 3042 3045 3047 3048 3050 3053
3034 3033 3032 3032 3032 3031 3030 3029 3028 3027 3025 3023 3021 3019 3017 3015 3013 3012 3010 3008 3006 3004 3003 3002 3001 3001 3001 3002 3003 3003 3003 3003 3003 3003 3003 3003 3003 3003 3004 3005 3006 3007 3008 3008 3009 3009 3010 3011 3012 3013 3015 3016 3017 3018 3018 3019 3019 3020 3021 3021 3021 3021 3021 3021 3021 3020 3020 3020 3020 3019 3018 3019 3019 3019 3019 3019 3021 3024 3027 3030 3034 3038 3041 3044 3046 3048 3050
3033 3033 3032 3032 3031 3030 3029 3028 3028 3027 3025 3024 3022 3020 3018 3016 3014 3013 3011 3009 3007 3005 3004 3002 3001 3001 3001 3001 3002 3002 3002 3003 3003 3003 3003 3003 3003 3003 3003 3004 3004 3005 3006 3007 3007 3008 3009 3009 3010 3011 3012 3013 3015 3016 3017 3018 3019 3020 3020 3021 3020 3020 3021 3022 3021 3021 3022 3022 3022 3021 3021 3021 3022 3022 3021 3020 3020 3022 3024 3026 3029 3033 3036 3039 3042 3045 3047
3033 3032 3032 3031 3030 3030 3029 3028 3027 3026 3025 3024 3022 3020 3018 3016 3015 3013 3012 3010 3009 3007 3005 3004 3002 3002 3001 3001 3001 3001 3001 3002 3002 3002 3002 3002 3002 3002 3003 3003 3004 3004 3005 3006 3007 3007 3008 3008 3009 3010 3011 3011 3012 3014 3015 3017 3018 3019 3020 3020 3020 3020 3021 3022 3022 3022 3022 3022 3022 3022 3022 3022 3023 3023 3023 3023 3023 3024 3024 3026 3028 3030 3032 3034 3037 3039 3041
3032 3031 3031 3030 3030 3029 3029 3028 3027 3026 3025 3024 3023 3021 3019 3017 3016 3014 3013 3012 3010 3009 3008 3006 3005 3004 3003 3003 3002 3002 3001 3001 3001 3001 3002 3002 3002 3002 3003 3003 3004 3004 3005 3006 3006 3007 3007 3007 3008 3008 3009 3010 3011 3012 3013 3015 3016 3017 3018 3019 3020 3021 3022 3022 3022 3022 3022 3022 3022 3022 3023 3023 3023 3023 3024 3024 3025 3026 3027 3028 3030 3031 3033 3034 3035 3037 3039
3031 3031 3030 3029 3029 3029 3028 3028 3026 3026 3025 3024 3023 3022 3020 3018 3017 3016 3014 3013 3012 3011 3010 3008 3007 3006 3005 3005 3004 3004 3003 3003 3002 3001 3001 3002 3002 3002 3002 3003 3004 3004 3005 3005 3006 3006 3006 3006 3007 3007 3008 3009 3010 3011 3012 3013 3015 3016 3017 3018 3020 3020 3021 3022 3022 3023 3023 3022 3022 3022 3023 3023 3024 3024 3024 3025 3026 3027 3028 3030 3031 3032 3034 3035 3036 3038 3039
3031 3030 3030 3029 3029 3028 3028 3028 3027 3026 3025 3024 3024 3022 3021 3019 3018 3017 3016 3015 3013 3013 3012 3011 3009 3008 3008 3007 3006 3006 3005 3005 3004 3003 3002 3002 3002 3002 3002 3003 3004 3004 3004 3005 3005 3005 3005 3006 3006 3007 3007 3008 3009 3009 3010 3012 3013 3014 3016 3017 3018 3020 3020 3021 3022 3022 3023 3023 3023 3023 3024 3024 3025 3025 3025 3026 3026 3027 3029 3030 3031 3033 3034 3036 3037 3038 3040
3030 3030 3029 3029 3028 3028 3027 3027 3026 3025 3024 3024 3024 3023 3022 3020 3019 3018 3017 3016 3015 3014 3013 3013 3012 3010 3010 3009 3008 3007 3007 3007 3006 3005 3004 3004 3003 3003 3003 3003 3004 3004 3005 3005 3005 3005 3005 3006 3006 3007 3007 3008 3008 3009 3010 3011 3012 3013 3015 3016 3017 3018 3019 3020 3020 3021 3022 3023 3024 3024 3025 3025 3025 3026 3026 3026 3027 3028 3029 3030 3032 3033 3034 3036 3037 3038 3039
3030 3030 3030 3029 3029 3028 3027 3027 3026 3025 3024 3024 3023 3023 3022 3021 3020 3019 3018 3018 3017 3016 3015 3014 3013 3012 3011 3010 3010 3009 3008 3008 3008 3008 3007 3006 3005 3005 3004 3005 3005 3005 3005 3005 3005 3005 3006 3006 3007 3007 3008 3008 3009 3009 3010 3011 3012 3013 3014 3015 3016 3017 3017 3018 3018 3019 3021 3022 3023 3024 3024 3024 3025 3025 3025 3026 3026 3027 3028 3029 3031 3032 3033 3034 3035 3036 3037
3030 3030 3030 3030 3029 3028 3028 3027 3026 3025 3025 3025 3024 3023 3023 3023 3022 3021 3020 3019 3018 3017 3017 3016 3015 3014 3013 3012 3011 3011 3010 3009 3009 3009 3009 3008 3007 3007 3007 3006 3006 3006 3006 3006 3006 3007 3007 3007 3007 3008 3009 3009 3010 3010 3011 3011 3012 3013 3014 3015 3016 3017 3017 3018 3018 3019 3020 3022 3022 3023 3023 3024 3024 3024 3024 3024 3025 3026 3027 3028 3029 3030 3031 3032 3033 3033 3034